Weather Roundup
Issued by NWS

Home | Current Version | Previous Version | Graphics & Text | Print | Product List | Glossary Off
Versions: 1 2 3 4 5 6 7 8 9 10 11 12 13 14 15 16 17 18 19 20 21 22 23 24 25 26 27 28 29 30 31 32 33 34 35 36 37 38 39 40 41 42 43 44 45 46 47 48 49 50

000
NZUS93 KARX 221810
HRRWXR

CURRENT HOURLY OBSERVATIONS ACROSS
MUCH OF THE UPPER MISSISSIPPI VALLEY
NATIONAL WEATHER SERVICE LA CROSSE WI
1200 PM CST MON JAN 22 2018


...SOUTHEAST MINNESOTA...


CITY           SKY/WX    TMP DP  RH WIND       PRES   REMARKS
ROCHESTER      SNOW      32  32 100 NE21G31   29.53F VSB 1/4 WCI  20
ROCHESTER/MAYO CLOUDY    32  32 100 NE10G20   29.54F VSB 3/4 WCI  24
WINONA         LGT RAIN  34  32  93 NE6       29.55F WCI  29
AUSTIN         SNOW      32  30  93 NE13      29.54R VSB 1/4 WCI  22
ALBERT LEA     LGT SNOW  34  32  93 NE17G26   29.55R VSB 3/4 WCI  23
DODGE CENTER   LGT SNOW  32  30  93 NE17G29   29.54F VSB 3/4 WCI  21
PRESTON        LGT SNOW  32  31  96 NE8       29.53R WCI  25
OWATONNA       CLOUDY    30  28  93 N20G30    29.56S WCI  18
FARIBAULT      SNOW      30  28  93 N23G31    29.59F VSB 1/4 WCI  17
$$

...ELSEWHERE IN MINNESOTA...


CITY           SKY/WX    TMP DP  RH WIND       PRES   REMARKS
MINNEAPOLIS    SNOW      30  29  96 N22G28    29.70F VSB 1/2 WCI  17
INTNL FALLS    CLOUDY    20  16  84 NE6       30.03F WCI  12
DULUTH         CLOUDY    22  21  96 NE18      29.89F WCI   7
RED WING       SNOW      34  28  80 NE15G28   29.60F VSB 1/4 WCI  24
REDWOOD FALLS  LGT SNOW  29  26  89 N15G25    29.73F VSB 3/4 WCI  18
MANKATO        LGT SNOW  30  28  93 N28G38    29.61S VSB 3/4 WCI  16
WORTHINGTON    HVY SNOW  27  26  96 N26G32    29.65R VSB 1/4 WCI  12
FAIRMONT       HVY SNOW  30  29  96 N23G31    29.61R VSB 1/4 WCI  17
$$

...SOUTHWEST WISCONSIN...


CITY           SKY/WX    TMP DP  RH WIND       PRES   REMARKS
LA CROSSE      LGT RAIN  37  34  89 NE15G22   29.52F FOG     WCI  28
PRAIRIE DU CHI LGT RAIN  36  34  92 E7        29.50R WCI  30
BOSCOBEL       LGT RAIN  37  32  82 E9        29.47F WCI  30
LONE ROCK      LGT RAIN  37  36  96 E15G23    29.46F FOG     WCI  28
PLATTEVILLE    CLOUDY    38  38 100 E13       29.46R WCI  30
FORT MC COY    LGT RAIN  34  33  95 E16G25    29.53F WCI  23
CAMP DOUGLAS   LGT RAIN  35  35  99 E14G22    29.54F WCI  26
MAUSTON-NEW LI RAIN     N/A N/A N/A E7G16     29.53F
VIROQUA        CLOUDY    34  34 100 E25G32    29.46F WCI  22
WIS DELLS      LGT RAIN  34  33  97 NE17G26   29.50F WCI  23
$$

...ELSEWHERE IN WISCONSIN...


CITY           SKY/WX    TMP DP  RH WIND       PRES   REMARKS
MILWAUKEE      LGT RAIN  41  40  96 N5        29.51F VSB 3/4
MADISON        DRIZZLE   38  37  97 NE13      29.50F FOG     WCI  30
GREEN BAY      LGT RAIN  34  32  92 NE23G30   29.65S FOG     WCI  22
EAU CLAIRE     HVY SNOW  31  31 100 NE20G29   29.61F VSB 1/4 WCI  19
BLACK RVR FLS  LGT RAIN  35  35 100 NE14      29.56F WCI  25
MEDFORD        LGT SNOW  31  30  94 NE21      29.62F VSB 3/4 WCI  19
WAUSAU         LGT SNOW  33  31  92 NE10G21   29.62F VSB 3/4 WCI  25
WIS RAPIDS     NOT AVBL
MARSHFIELD     LGT SNOW  33  32  96 NE20G28   29.58F FOG     WCI  21
RICE LAKE      SNOW      30  28  94 N23       29.74F VSB 1/2 WCI  17
$$

...NORTHEAST IOWA...


CITY           SKY/WX    TMP DP  RH WIND       PRES   REMARKS
WATERLOO       CLOUDY    37  35  92 NE12      29.43F WCI  29
DUBUQUE        CLOUDY    39  39 100 N6        29.43F FOG     WCI  35
DECORAH        LGT SNOW  34  34 100 E8        29.50R WCI  27
MASON CITY     HVY SNOW  32  31  96 N21G40    29.48F VSB 1/4 WCI  20
CHARLES CITY   LGT SNOW  34  34 100 NE18      29.46F WCI  23
OELWEIN        PTSUNNY   36  36 100 NE15      29.43F WCI  26
$$

...ELSEWHERE IN IOWA...


CITY           SKY/WX    TMP DP  RH WIND       PRES   REMARKS
DES MOINES     CLOUDY    46  42  86 S14       29.37F
IOWA CITY      FAIR      54  39  57 SW16G25   29.42F
FORT DODGE     MIX PCPN  33  32  96 N17G25    29.44F FOG     WCI  22
MARSHALLTOWN   CLOUDY    39  39 100 NE14      29.38F WCI  31
CEDAR RAPIDS   FAIR      51  51 100 S8        29.39F
$$

...NORTHERN ILLINOIS...


CITY           SKY/WX    TMP DP  RH WIND       PRES   REMARKS
CHICAGO-OHARE  DRIZZLE   51  48  89 S18G26    29.50F FOG
CHICAGO-MIDWAY CLOUDY    52  50  93 S16G25    29.53F FOG
MOLINE         PTSUNNY   58  49  72 S20G29    29.41F
ROCKFORD       LGT RAIN  47  47 100 S13       29.47F VSB 3/4
PEORIA         PTSUNNY   56  51  84 S16G30    29.47F
$$

NOTE: "FAIR" INDICATES FEW OR NO CLOUDS BELOW 12,000 FEET WITH NO
SIGNIFICANT WEATHER AND/OR OBSTRUCTIONS TO VISIBILITY. WIND
SPEEDS ARE IN MILES-PER-HOUR.




USA.gov is the U.S. government's official web portal to all federal, state and local government web resources and services.